Home > Weather > Coburg > Past weeks

Flag for Germany Weather for the Past 2 Weeks in Coburg, Bavaria, Germany

Now
43 °F

Scattered clouds.


Feels Like: 37 °F
Forecast: 35 / 64 °F
Wind: 10 mph from North

Location: Hof Airport

Current Time: May 4, 2016 at 12:34:52 PM

Latest Report: May 4, 2016 at 11:20 AM


Visibility: N/A

Pressure: 30.33 "Hg

Humidity: 66%

Dew Point: 32 °F

Location of CoburgLocation

Historic Weather in Coburg — Graph

°F

Coburg Temperature Yesterday

Maximum temperature yesterday: 59 °F (at 11:50 AM)
Minimum temperature yesterday: 39 °F (at 6:50 AM)
Average temperature yesterday: 50 °F

High & Low Weather Summary for the Past Weeks

 TemperatureHumidityPressure
High63 °F (Apr 30, 2:50 PM)93% (Apr 23, 4:50 PM)30.39 "Hg (Apr 23, 4:50 PM)
Low30 °F (Apr 25, 6:50 AM)20% (Apr 21, 2:20 PM)29.45 "Hg (Apr 26, 6:20 AM)
Average45 °F61%30.00 "Hg
* Reported Apr 19 10:20 AM — May 4 10:50 AM, Coburg, Weather by CustomWeather, © 2016

Note: Actual official high and low records may vary slightly from our data, if they occured in-between our weather recording intervals... More about our weather records

Advertising

Coburg Weather History for the Previous 24 Hours

Scroll right to see more
 ConditionsComfort  
Time TempWeatherWind HumidityBarometerVisibility
10:50 AM
Wed, May 4
43 °FBroken clouds.9 mph66%30.33 "HgN/A
9:50 AM39 °FBroken clouds.9 mph75%30.33 "HgN/A
9:20 AM39 °FPartly sunny.12 mph75%30.33 "HgN/A
8:50 AM37 °FPartly sunny.9 mph81%30.30 "HgN/A
8:20 AM39 °FPartly sunny.12 mph75%30.30 "HgN/A
7:50 AM37 °FPartly sunny.10 mph81%30.30 "HgN/A
7:20 AM37 °FPartly sunny.10 mph81%30.30 "HgN/A
6:50 AM37 °FPartly sunny.9 mph87%30.27 "HgN/A
7:50 PM
Tue, May 3
43 °FLight rain. Overcast.10 mph87%30.12 "HgN/A
7:20 PM45 °FRain. More clouds than sun.10 mph81%30.12 "HgN/A
6:50 PM45 °FLight rain. Partly sunny.13 mph76%30.09 "HgN/A
6:20 PM45 °FPartly sunny.13 mph81%30.09 "HgN/A
5:50 PM46 °FPartly sunny.16 mph76%30.07 "HgN/A
5:20 PM46 °FScattered clouds.16 mph82%30.07 "HgN/A
4:50 PM50 °FBroken clouds.17 mph76%30.07 "HgN/A
4:20 PM55 °FScattered clouds.5 mph67%30.04 "Hg5 mi
3:50 PM52 °FThunderstorms. Scattered clouds.6 mph77%30.04 "Hg6 mi
3:20 PM48 °FThunderstorms. Partly sunny.8 mph82%30.04 "Hg5 mi
2:50 PM54 °FThunderstorms. Partly sunny.9 mph63%30.04 "HgN/A
2:20 PM57 °FThundershowers. Broken clouds.8 mph51%30.01 "HgN/A
1:20 PM59 °FPassing clouds.9 mph42%30.01 "HgN/A
12:50 PM59 °FPassing clouds.8 mph42%30.04 "HgN/A
12:20 PM59 °FPassing clouds.9 mph39%30.04 "HgN/A
Weather by CustomWeather, © 2016

See weather overviewHow to use our weather pages